Location: Goettingen
(51.5300°N, 9.9433°E)
Time: 14:45:08
(UTC+01:00)

ISS - Pass Details

Date: 20 January 2021
Orbit: 418 x 421 km, 51.6° (Epoch: 24 January)

Event Time Altitude Azimuth Distance (km) Brightness Sun altitude
Rises 18:39:53 0° 211° (SSW) 2,360 0.7 -16.8°
Reaches altitude 10° 18:42:19 10° 194° (SSW) 1,500 -0.7 -17.2°
Enters shadow 18:44:40 20° 150° (SSE) 1,032 -2.0 -17.5°
